Time,TemperatureF,DewpointF,PressureIn,WindDirection,WindDirectionDegrees,WindSpeedMPH,WindSpeedGustMPH,Humidity,HourlyPrecipIn,Conditions,Clouds,dailyrainin,SoftwareType,DateUTC
2013-02-24 00:01:00,70.5,66.7,29.91,SSE,158,0.0,0.0,88,0.00,,,0.00,WSDL version 420,2013-02-24 05:01:00,
2013-02-24 00:06:00,70.5,66.7,29.91,SSE,158,0.0,0.0,88,0.00,,,0.00,WSDL version 420,2013-02-24 05:06:00,
2013-02-24 00:11:00,70.5,66.7,29.91,SSE,158,0.0,0.0,88,0.00,,,0.00,WSDL version 420,2013-02-24 05:11:00,
2013-02-24 00:16:00,70.3,66.5,29.91,SSE,158,0.0,0.0,88,0.00,,,0.00,WSDL version 420,2013-02-24 05:16:00,
2013-02-24 00:21:00,70.3,66.8,29.91,SSE,158,0.0,0.0,89,0.00,,,0.00,WSDL version 420,2013-02-24 05:21:00,
2013-02-24 00:26:00,70.2,66.7,29.91,SSE,158,0.0,0.0,89,0.00,,,0.00,WSDL version 420,2013-02-24 05:26:00,
2013-02-24 00:31:00,70.1,66.7,29.91,SSE,158,0.0,0.0,89,0.00,,,0.00,WSDL version 420,2013-02-24 05:31:00,
2013-02-24 00:36:00,70.0,66.6,29.91,SSE,158,0.0,0.0,89,0.00,,,0.00,WSDL version 420,2013-02-24 05:36:00,
2013-02-24 00:41:00,70.0,66.6,29.91,SSE,158,0.0,0.0,89,0.00,,,0.00,WSDL version 420,2013-02-24 05:41:00,
2013-02-24 00:46:00,69.8,66.4,29.91,SSE,158,0.0,0.0,89,0.00,,,0.00,WSDL version 420,2013-02-24 05:46:00,
2013-02-24 00:51:00,69.8,66.7,29.91,SSE,158,0.0,0.0,90,0.00,,,0.00,WSDL version 420,2013-02-24 05:51:00,
2013-02-24 00:56:00,69.7,66.6,29.91,SSE,158,0.0,0.0,90,0.00,,,0.00,WSDL version 420,2013-02-24 05:56:00,
2013-02-24 01:01:00,69.6,66.6,29.91,SSE,158,0.0,0.0,90,0.00,,,0.00,WSDL version 420,2013-02-24 06:01:00,
2013-02-24 01:06:00,69.4,66.4,29.94,SSE,158,0.0,0.0,90,0.00,,,0.00,WSDL version 420,2013-02-24 06:06:00,
2013-02-24 01:11:00,69.4,66.4,29.94,SSE,158,0.0,0.0,90,0.00,,,0.00,WSDL version 420,2013-02-24 06:11:00,
2013-02-24 01:16:00,69.4,66.4,29.94,SSE,158,0.0,0.0,90,0.00,,,0.00,WSDL version 420,2013-02-24 06:16:00,
2013-02-24 01:21:00,69.3,66.2,29.91,SSE,158,0.0,0.0,90,0.00,,,0.00,WSDL version 420,2013-02-24 06:21:00,
2013-02-24 01:26:00,69.3,66.3,29.91,SSE,158,0.0,0.0,91,0.00,,,0.00,WSDL version 420,2013-02-24 06:26:00,
2013-02-24 01:31:00,69.3,66.6,29.91,SSE,158,0.0,0.0,91,0.00,,,0.00,WSDL version 420,2013-02-24 06:31:00,
2013-02-24 01:36:00,69.3,66.6,29.91,SSE,158,0.0,0.0,91,0.00,,,0.00,WSDL version 420,2013-02-24 06:36:00,
2013-02-24 01:41:00,69.3,66.6,29.91,SSE,158,0.0,0.0,91,0.00,,,0.00,WSDL version 420,2013-02-24 06:41:00,
2013-02-24 01:46:00,69.3,66.6,29.91,SSE,158,0.0,0.0,91,0.00,,,0.00,WSDL version 420,2013-02-24 06:46:00,
2013-02-24 01:51:00,69.2,66.4,29.88,SSE,158,0.0,0.0,91,0.00,,,0.00,WSDL version 420,2013-02-24 06:51:00,
2013-02-24 01:56:00,69.1,66.4,29.88,SSE,158,0.0,0.0,91,0.00,,,0.00,WSDL version 420,2013-02-24 06:56:00,
2013-02-24 02:01:00,69.1,66.5,29.88,SSE,158,0.0,0.0,92,0.00,,,0.00,WSDL version 420,2013-02-24 07:01:00,
2013-02-24 02:06:00,69.1,66.7,29.88,SSE,158,0.0,0.0,92,0.00,,,0.00,WSDL version 420,2013-02-24 07:06:00,
2013-02-24 02:11:00,69.1,66.7,29.88,SSE,158,0.0,0.0,92,0.00,,,0.00,WSDL version 420,2013-02-24 07:11:00,
2013-02-24 02:16:00,69.1,66.7,29.88,SSE,158,0.0,0.0,92,0.00,,,0.00,WSDL version 420,2013-02-24 07:16:00,
2013-02-24 02:21:00,69.1,66.7,29.88,SSE,158,0.0,0.0,92,0.00,,,0.00,WSDL version 420,2013-02-24 07:21:00,
2013-02-24 02:26:00,69.0,66.6,29.88,SSE,158,0.0,0.0,92,0.00,,,0.00,WSDL version 420,2013-02-24 07:26:00,
2013-02-24 02:31:00,69.1,66.8,29.88,SSE,158,0.0,0.0,92,0.00,,,0.00,WSDL version 420,2013-02-24 07:31:00,
2013-02-24 02:36:00,69.3,67.3,29.88,SSE,158,0.0,0.0,93,0.00,,,0.00,WSDL version 420,2013-02-24 07:36:00,
2013-02-24 02:41:00,69.3,67.3,29.88,SSE,158,0.0,0.0,93,0.00,,,0.00,WSDL version 420,2013-02-24 07:41:00,
2013-02-24 02:46:00,69.4,67.4,29.88,South,180,0.0,0.0,93,0.00,,,0.00,WSDL version 420,2013-02-24 07:46:00,
2013-02-24 02:51:00,69.4,67.4,29.88,South,180,0.0,0.0,93,0.00,,,0.00,WSDL version 420,2013-02-24 07:51:00,
2013-02-24 02:56:00,69.4,67.4,29.88,South,180,0.0,0.0,93,0.00,,,0.00,WSDL version 420,2013-02-24 07:56:00,
2013-02-24 03:01:00,69.4,67.4,29.88,South,180,0.0,0.0,93,0.00,,,0.00,WSDL version 420,2013-02-24 08:01:00,
2013-02-24 03:06:00,69.4,67.4,29.88,South,180,0.0,0.0,93,0.00,,,0.00,WSDL version 420,2013-02-24 08:06:00,
2013-02-24 03:11:00,69.3,67.3,29.88,South,180,0.0,0.0,93,0.00,,,0.00,WSDL version 420,2013-02-24 08:11:00,
2013-02-24 03:16:00,69.3,67.3,29.88,South,180,0.0,0.0,93,0.00,,,0.00,WSDL version 420,2013-02-24 08:16:00,
2013-02-24 03:21:00,69.2,67.2,29.88,South,180,0.0,0.0,93,0.00,,,0.00,WSDL version 420,2013-02-24 08:21:00,
2013-02-24 03:26:00,69.3,67.3,29.88,South,180,0.0,0.0,93,0.00,,,0.00,WSDL version 420,2013-02-24 08:26:00,
2013-02-24 03:31:00,69.3,67.3,29.88,South,180,0.0,0.0,93,0.00,,,0.00,WSDL version 420,2013-02-24 08:31:00,
2013-02-24 03:36:00,69.4,67.4,29.88,South,180,0.0,0.0,93,0.00,,,0.00,WSDL version 420,2013-02-24 08:36:00,
2013-02-24 03:41:00,69.6,67.7,29.88,South,180,0.0,0.0,94,0.00,,,0.00,WSDL version 420,2013-02-24 08:41:00,
2013-02-24 03:46:00,69.9,67.9,29.88,SSE,158,0.0,0.0,93,0.00,,,0.00,WSDL version 420,2013-02-24 08:46:00,
2013-02-24 03:51:00,70.1,68.4,29.88,SSE,158,0.0,0.0,94,0.00,,,0.00,WSDL version 420,2013-02-24 08:51:00,
2013-02-24 03:56:00,70.2,68.5,29.88,SSE,158,0.0,0.0,94,0.00,,,0.00,WSDL version 420,2013-02-24 08:56:00,
2013-02-24 04:01:00,70.4,68.7,29.88,South,180,0.0,0.0,94,0.00,,,0.00,WSDL version 420,2013-02-24 09:01:00,
2013-02-24 04:06:00,70.5,68.8,29.88,SW,225,0.0,0.0,94,0.00,,,0.00,WSDL version 420,2013-02-24 09:06:00,
2013-02-24 04:11:00,70.5,68.8,29.88,SSW,203,0.0,0.9,94,0.00,,,0.00,WSDL version 420,2013-02-24 09:11:00,
2013-02-24 04:16:00,70.7,69.0,29.88,SSW,195,0.0,0.9,94,0.00,,,0.00,WSDL version 420,2013-02-24 09:16:00,
2013-02-24 04:21:00,70.9,69.2,29.88,South,180,0.0,0.0,94,0.00,,,0.00,WSDL version 420,2013-02-24 09:21:00,
2013-02-24 04:26:00,71.0,69.3,29.88,SSE,163,0.4,2.2,94,0.00,,,0.00,WSDL version 420,2013-02-24 09:26:00,
2013-02-24 04:31:00,71.1,69.4,29.88,SSE,158,0.8,3.1,94,0.00,,,0.00,WSDL version 420,2013-02-24 09:31:00,
2013-02-24 04:36:00,71.2,69.5,29.85,South,180,1.6,3.1,94,0.00,,,0.00,WSDL version 420,2013-02-24 09:36:00,
2013-02-24 04:41:00,71.2,69.6,29.85,South,174,1.3,2.7,94,0.00,,,0.00,WSDL version 420,2013-02-24 09:41:00,
2013-02-24 04:46:00,71.2,69.6,29.85,South,180,1.3,2.9,94,0.00,,,0.00,WSDL version 420,2013-02-24 09:46:00,
2013-02-24 04:51:00,71.4,69.7,29.88,SSW,203,1.2,4.0,94,0.00,,,0.00,WSDL version 420,2013-02-24 09:51:00,
2013-02-24 04:56:00,71.4,69.7,29.88,South,180,1.6,4.0,94,0.00,,,0.00,WSDL version 420,2013-02-24 09:56:00,
2013-02-24 05:01:00,71.4,69.7,29.88,SW,234,1.7,4.0,94,0.00,,,0.00,WSDL version 420,2013-02-24 10:01:00,
2013-02-24 05:06:00,71.4,69.7,29.88,SSW,212,1.4,2.9,94,0.00,,,0.00,WSDL version 420,2013-02-24 10:06:00,
2013-02-24 05:11:00,71.4,69.7,29.85,SSW,210,1.3,2.9,94,0.00,,,0.00,WSDL version 420,2013-02-24 10:11:00,
2013-02-24 05:16:00,71.4,69.7,29.85,South,186,2.1,3.4,94,0.00,,,0.00,WSDL version 420,2013-02-24 10:16:00,
2013-02-24 05:21:00,71.4,69.7,29.88,South,188,1.3,3.4,94,0.00,,,0.00,WSDL version 420,2013-02-24 10:21:00,
2013-02-24 05:26:00,71.4,69.7,29.88,South,189,1.7,4.9,94,0.00,,,0.00,WSDL version 420,2013-02-24 10:26:00,
2013-02-24 05:31:00,71.5,69.8,29.88,SSW,207,1.3,4.9,94,0.00,,,0.00,WSDL version 420,2013-02-24 10:31:00,
2013-02-24 05:36:00,71.6,69.9,29.88,SSW,197,0.0,2.7,94,0.00,,,0.00,WSDL version 420,2013-02-24 10:36:00,
2013-02-24 05:41:00,71.6,69.9,29.88,SSE,165,1.4,3.6,94,0.00,,,0.00,WSDL version 420,2013-02-24 10:41:00,
2013-02-24 05:46:00,71.6,69.9,29.88,South,183,0.2,3.6,94,0.00,,,0.00,WSDL version 420,2013-02-24 10:46:00,
2013-02-24 05:51:00,71.6,69.9,29.88,South,173,0.7,2.2,94,0.00,,,0.00,WSDL version 420,2013-02-24 10:51:00,
2013-02-24 05:56:00,71.6,69.9,29.88,SSE,165,0.4,2.2,94,0.00,,,0.00,WSDL version 420,2013-02-24 10:56:00,
2013-02-24 06:01:00,71.6,69.9,29.88,SSE,158,2.0,3.8,94,0.00,,,0.00,WSDL version 420,2013-02-24 11:01:00,
2013-02-24 06:06:00,71.6,69.9,29.88,South,180,1.9,4.0,94,0.00,,,0.00,WSDL version 420,2013-02-24 11:06:00,
2013-02-24 06:11:00,71.6,69.9,29.88,South,173,2.2,4.0,94,0.00,,,0.00,WSDL version 420,2013-02-24 11:11:00,
2013-02-24 06:16:00,71.6,69.9,29.88,South,189,0.8,3.4,94,0.00,,,0.00,WSDL version 420,2013-02-24 11:16:00,
2013-02-24 06:21:00,71.6,69.9,29.91,South,173,3.6,4.7,94,0.00,,,0.00,WSDL version 420,2013-02-24 11:21:00,
2013-02-24 06:26:00,71.5,69.8,29.91,South,180,1.6,4.7,94,0.00,,,0.00,WSDL version 420,2013-02-24 11:26:00,
2013-02-24 06:31:00,71.4,69.7,29.91,SSE,163,3.5,4.7,94,0.00,,,0.00,WSDL version 420,2013-02-24 11:31:00,
2013-02-24 06:36:00,71.4,69.7,29.91,South,180,2.4,4.9,94,0.00,,,0.00,WSDL version 420,2013-02-24 11:36:00,
2013-02-24 06:41:00,71.4,69.7,29.91,South,176,2.1,4.9,94,0.00,,,0.00,WSDL version 420,2013-02-24 11:41:00,
2013-02-24 06:46:00,71.3,69.6,29.91,SSW,203,2.5,4.0,94,0.00,,,0.00,WSDL version 420,2013-02-24 11:46:00,
2013-02-24 06:51:00,71.2,69.6,29.88,South,180,2.7,4.0,94,0.00,,,0.00,WSDL version 420,2013-02-24 11:51:00,
2013-02-24 06:56:00,71.2,69.6,29.88,SSE,165,3.1,5.6,94,0.00,,,0.00,WSDL version 420,2013-02-24 11:56:00,
2013-02-24 07:01:00,71.2,69.6,29.88,South,180,2.3,5.6,94,0.00,,,0.00,WSDL version 420,2013-02-24 12:01:00,
2013-02-24 07:06:00,71.2,69.6,29.91,SSW,208,1.4,4.0,94,0.00,,,0.00,WSDL version 420,2013-02-24 12:06:00,
2013-02-24 07:11:00,71.4,69.7,29.91,SW,218,0.0,3.6,94,0.00,,,0.00,WSDL version 420,2013-02-24 12:11:00,
2013-02-24 07:16:00,71.5,69.8,29.91,West,281,0.0,2.5,94,0.00,,,0.00,WSDL version 420,2013-02-24 12:16:00,
2013-02-24 07:21:00,71.6,69.9,29.91,SSW,203,1.3,2.0,94,0.00,,,0.00,WSDL version 420,2013-02-24 12:21:00,
2013-02-24 07:26:00,71.6,69.8,29.91,South,169,0.6,2.7,93,0.00,,,0.00,WSDL version 420,2013-02-24 12:26:00,
2013-02-24 07:31:00,71.7,69.7,29.91,South,180,0.0,2.7,93,0.00,,,0.00,WSDL version 420,2013-02-24 12:31:00,
2013-02-24 07:36:00,71.8,69.8,29.94,South,171,0.0,2.0,93,0.00,,,0.00,WSDL version 420,2013-02-24 12:36:00,
2013-02-24 07:41:00,71.8,69.8,29.94,SSW,203,2.3,3.8,93,0.00,,,0.00,WSDL version 420,2013-02-24 12:41:00,
2013-02-24 07:51:00,72.2,70.2,29.94,South,180,0.7,3.1,93,0.00,,,0.00,WSDL version 420,2013-02-24 12:51:00,
2013-02-24 07:56:00,72.4,70.4,29.94,SW,225,1.2,3.1,93,0.00,,,0.00,WSDL version 420,2013-02-24 12:56:00,
2013-02-24 08:01:00,72.5,70.5,29.94,SW,225,0.0,2.5,93,0.00,,,0.00,WSDL version 420,2013-02-24 13:01:00,
2013-02-24 08:06:00,72.6,70.5,29.94,SSE,154,0.0,2.0,92,0.00,,,0.00,WSDL version 420,2013-02-24 13:06:00,
2013-02-24 08:11:00,72.8,70.4,29.94,SSE,153,1.6,3.6,92,0.00,,,0.00,WSDL version 420,2013-02-24 13:11:00,
2013-02-24 08:16:00,72.9,70.5,29.94,SW,219,0.4,3.6,92,0.00,,,0.00,WSDL version 420,2013-02-24 13:16:00,
2013-02-24 08:21:00,73.1,70.7,29.94,South,180,0.7,2.5,92,0.00,,,0.00,WSDL version 420,2013-02-24 13:21:00,
2013-02-24 08:31:00,73.8,71.0,29.94,SE,143,2.2,3.6,91,0.00,,,0.00,WSDL version 420,2013-02-24 13:31:00,
2013-02-24 08:36:00,73.8,71.0,29.94,North,0,0.0,2.7,91,0.00,,,0.00,WSDL version 420,2013-02-24 13:36:00,
2013-02-24 08:41:00,74.0,70.9,29.94,South,170,0.6,2.7,90,0.00,,,0.00,WSDL version 420,2013-02-24 13:41:00,
2013-02-24 08:46:00,74.1,71.0,29.94,South,180,0.9,3.4,90,0.00,,,0.00,WSDL version 420,2013-02-24 13:46:00,
2013-02-24 08:56:00,74.5,71.0,29.94,South,173,1.9,3.6,89,0.00,,,0.00,WSDL version 420,2013-02-24 13:56:00,
2013-02-24 09:01:00,74.6,71.1,29.94,SSE,160,2.3,3.6,89,0.00,,,0.00,WSDL version 420,2013-02-24 14:01:00,
2013-02-24 09:06:00,75.1,71.4,29.94,SSE,162,3.9,5.8,88,0.00,,,0.00,WSDL version 420,2013-02-24 14:06:00,
2013-02-24 09:11:00,75.3,71.3,29.94,SSE,167,2.1,5.8,87,0.00,,,0.00,WSDL version 420,2013-02-24 14:11:00,
2013-02-24 09:21:00,76.2,72.0,29.94,South,180,2.5,4.9,87,0.00,,,0.00,WSDL version 420,2013-02-24 14:21:00,
2013-02-24 09:31:00,76.6,71.3,29.94,SSE,158,2.7,5.8,83,0.00,,,0.00,WSDL version 420,2013-02-24 14:31:00,
2013-02-24 09:41:00,76.7,70.9,29.97,South,180,2.2,6.5,82,0.00,,,0.00,WSDL version 420,2013-02-24 14:41:00,
2013-02-24 09:46:00,77.0,70.6,29.97,South,176,3.9,7.2,80,0.00,,,0.00,WSDL version 420,2013-02-24 14:46:00,
2013-02-24 09:51:00,77.0,70.3,29.97,South,185,3.1,7.2,79,0.00,,,0.00,WSDL version 420,2013-02-24 14:51:00,
2013-02-24 10:01:00,76.9,69.9,29.97,South,172,2.9,4.5,79,0.00,,,0.00,WSDL version 420,2013-02-24 15:01:00,
2013-02-24 10:06:00,77.4,70.3,29.94,South,169,0.7,4.3,79,0.00,,,0.00,WSDL version 420,2013-02-24 15:06:00,
2013-02-24 10:11:00,77.8,70.7,29.94,WSW,254,0.0,3.4,78,0.00,,,0.00,WSDL version 420,2013-02-24 15:11:00,
2013-02-24 10:16:00,78.5,71.2,29.94,SSE,161,2.4,6.5,78,0.00,,,0.00,WSDL version 420,2013-02-24 15:16:00,
2013-02-24 10:26:00,79.2,70.9,29.94,SSE,163,1.8,6.0,76,0.00,,,0.00,WSDL version 420,2013-02-24 15:26:00,
2013-02-24 10:31:00,79.7,70.9,29.94,South,169,2.7,6.0,74,0.00,,,0.00,WSDL version 420,2013-02-24 15:31:00,
2013-02-24 10:41:00,80.1,70.3,29.94,South,169,3.8,7.4,72,0.00,,,0.00,WSDL version 420,2013-02-24 15:41:00,
2013-02-24 10:51:00,80.5,69.6,29.91,South,180,2.7,6.3,69,0.00,,,0.00,WSDL version 420,2013-02-24 15:51:00,
2013-02-24 10:56:00,80.9,69.8,29.91,South,177,2.2,4.3,69,0.00,,,0.00,WSDL version 420,2013-02-24 15:56:00,
2013-02-24 11:01:00,81.1,70.0,29.91,ENE,64,0.7,3.8,69,0.00,,,0.00,WSDL version 420,2013-02-24 16:01:00,
2013-02-24 11:06:00,81.6,70.3,29.94,South,176,2.2,3.8,68,0.00,,,0.00,WSDL version 420,2013-02-24 16:06:00,
2013-02-24 11:11:00,81.9,70.0,29.94,SW,225,1.5,4.9,67,0.00,,,0.00,WSDL version 420,2013-02-24 16:11:00,
2013-02-24 11:16:00,82.3,69.8,29.94,South,176,3.9,7.2,65,0.00,,,0.00,WSDL version 420,2013-02-24 16:16:00,
2013-02-24 11:21:00,82.7,69.3,29.94,WNW,302,1.3,7.2,64,0.00,,,0.00,WSDL version 420,2013-02-24 16:21:00,
2013-02-24 11:26:00,83.1,69.6,29.94,SE,132,5.0,7.8,63,0.00,,,0.00,WSDL version 420,2013-02-24 16:26:00,
2013-02-24 11:31:00,83.4,69.3,29.94,SSE,152,4.3,7.8,62,0.00,,,0.00,WSDL version 420,2013-02-24 16:31:00,
2013-02-24 11:36:00,83.7,69.0,29.94,SSE,164,1.9,7.2,62,0.00,,,0.00,WSDL version 420,2013-02-24 16:36:00,
2013-02-24 11:41:00,83.8,68.7,29.94,East,80,2.6,4.3,61,0.00,,,0.00,WSDL version 420,2013-02-24 16:41:00,
2013-02-24 11:46:00,83.9,68.8,29.94,SSE,155,2.5,6.5,61,0.00,,,0.00,WSDL version 420,2013-02-24 16:46:00,
2013-02-24 11:51:00,84.2,68.9,29.91,ESE,120,3.4,9.4,60,0.00,,,0.00,WSDL version 420,2013-02-24 16:51:00,
2013-02-24 11:56:00,84.6,68.7,29.91,SSE,167,3.4,9.4,59,0.00,,,0.00,WSDL version 420,2013-02-24 16:56:00,
2013-02-24 12:01:00,85.1,69.5,29.91,South,184,2.1,5.6,59,0.00,,,0.00,WSDL version 420,2013-02-24 17:01:00,
2013-02-24 12:06:00,85.5,69.3,29.91,SE,127,2.5,5.6,58,0.00,,,0.00,WSDL version 420,2013-02-24 17:06:00,
2013-02-24 12:11:00,85.9,69.0,29.91,SE,139,0.5,5.4,57,0.00,,,0.00,WSDL version 420,2013-02-24 17:11:00,
2013-02-24 12:16:00,85.8,67.8,29.91,ENE,68,1.7,3.4,52,0.00,,,0.00,WSDL version 420,2013-02-24 17:16:00,
2013-02-24 12:21:00,85.8,67.1,29.91,South,185,1.8,3.4,54,0.00,,,0.00,WSDL version 420,2013-02-24 17:21:00,
2013-02-24 12:26:00,86.0,67.5,29.91,SSE,167,1.8,5.8,54,0.00,,,0.00,WSDL version 420,2013-02-24 17:26:00,
2013-02-24 12:31:00,86.4,67.5,29.91,South,186,1.2,6.0,53,0.00,,,0.00,WSDL version 420,2013-02-24 17:31:00,
2013-02-24 12:36:00,86.5,66.7,29.88,WSW,255,2.0,6.0,51,0.00,,,0.00,WSDL version 420,2013-02-24 17:36:00,
2013-02-24 12:41:00,85.9,65.4,29.88,SE,143,3.2,4.3,50,0.00,,,0.00,WSDL version 420,2013-02-24 17:41:00,
2013-02-24 12:46:00,85.7,65.5,29.88,North,354,1.9,4.3,51,0.00,,,0.00,WSDL version 420,2013-02-24 17:46:00,
2013-02-24 12:51:00,85.1,64.3,29.88,West,266,0.7,4.3,50,0.00,,,0.00,WSDL version 420,2013-02-24 17:51:00,
2013-02-24 12:56:00,84.7,64.4,29.88,South,170,0.8,3.8,51,0.00,,,0.00,WSDL version 420,2013-02-24 17:56:00,
2013-02-24 13:01:00,84.6,64.1,29.88,SSE,158,3.4,8.5,50,0.00,,,0.00,WSDL version 420,2013-02-24 18:01:00,
2013-02-24 13:06:00,84.9,64.4,29.88,SSE,158,2.5,8.5,51,0.00,,,0.00,WSDL version 420,2013-02-24 18:06:00,
2013-02-24 13:11:00,86.1,65.5,29.88,SSE,154,2.4,4.7,50,0.00,,,0.00,WSDL version 420,2013-02-24 18:11:00,
2013-02-24 13:16:00,86.5,64.5,29.88,South,174,4.6,6.7,48,0.00,,,0.00,WSDL version 420,2013-02-24 18:16:00,
2013-02-24 13:21:00,86.9,64.5,29.88,South,170,5.1,6.7,47,0.00,,,0.00,WSDL version 420,2013-02-24 18:21:00,
2013-02-24 13:26:00,87.2,64.1,29.88,South,174,4.1,6.0,46,0.00,,,0.00,WSDL version 420,2013-02-24 18:26:00,
2013-02-24 13:31:00,87.5,64.3,29.88,South,177,3.1,6.7,46,0.00,,,0.00,WSDL version 420,2013-02-24 18:31:00,
2013-02-24 13:36:00,88.0,64.2,29.88,South,190,1.8,6.7,46,0.00,,,0.00,WSDL version 420,2013-02-24 18:36:00,
2013-02-24 13:41:00,88.3,64.0,29.88,SSW,196,1.9,4.7,44,0.00,,,0.00,WSDL version 420,2013-02-24 18:41:00,
2013-02-24 13:46:00,87.7,62.9,29.88,South,180,2.7,5.4,44,0.00,,,0.00,WSDL version 420,2013-02-24 18:46:00,
2013-02-24 13:51:00,87.3,62.4,29.85,South,180,2.7,5.4,44,0.00,,,0.00,WSDL version 420,2013-02-24 18:51:00,
2013-02-24 13:56:00,86.9,61.9,29.85,South,180,2.7,2.9,43,0.00,,,0.00,WSDL version 420,2013-02-24 18:56:00,
2013-02-24 14:01:00,87.5,62.7,29.85,SSW,203,0.0,2.9,44,0.00,,,0.00,WSDL version 420,2013-02-24 19:01:00,
2013-02-24 14:06:00,87.2,62.0,29.85,SSW,203,0.0,2.9,43,0.00,,,0.00,WSDL version 420,2013-02-24 19:06:00,
2013-02-24 14:11:00,87.4,62.7,29.85,SSE,158,4.3,4.3,44,0.00,,,0.00,WSDL version 420,2013-02-24 19:11:00,
2013-02-24 14:16:00,87.4,62.5,29.85,SSE,158,4.3,4.3,43,0.00,,,0.00,WSDL version 420,2013-02-24 19:16:00,
2013-02-24 14:21:00,86.6,61.7,29.85,SSE,158,4.3,4.3,44,0.00,,,0.00,WSDL version 420,2013-02-24 19:21:00,
2013-02-24 14:26:00,85.8,61.2,29.85,West,270,0.9,2.7,44,0.00,,,0.00,WSDL version 420,2013-02-24 19:26:00,
2013-02-24 14:31:00,85.4,61.7,29.85,West,270,0.9,2.7,45,0.00,,,0.00,WSDL version 420,2013-02-24 19:31:00,
2013-02-24 14:36:00,85.3,62.2,29.85,WNW,300,1.0,1.0,46,0.00,,,0.00,WSDL version 420,2013-02-24 19:36:00,
2013-02-24 14:41:00,86.0,62.7,29.85,SSE,163,0.7,2.5,46,0.00,,,0.00,WSDL version 420,2013-02-24 19:41:00,
2013-02-24 14:46:00,87.0,63.8,29.85,SSE,150,1.8,3.8,45,0.00,,,0.00,WSDL version 420,2013-02-24 19:46:00,
2013-02-24 14:51:00,87.6,64.1,29.85,South,180,2.5,3.8,46,0.00,,,0.00,WSDL version 420,2013-02-24 19:51:00,
2013-02-24 14:56:00,86.7,62.3,29.85,South,180,2.5,2.5,43,0.00,,,0.00,WSDL version 420,2013-02-24 19:56:00,
2013-02-24 15:01:00,86.2,62.5,29.85,SSW,210,0.0,1.6,46,0.00,,,0.00,WSDL version 420,2013-02-24 20:01:00,
2013-02-24 15:06:00,86.4,62.8,29.85,South,180,2.5,3.6,45,0.00,,,0.00,WSDL version 420,2013-02-24 20:06:00,
2013-02-24 15:11:00,86.8,62.9,29.85,South,191,2.0,3.6,45,0.00,,,0.00,WSDL version 420,2013-02-24 20:11:00,
2013-02-24 15:16:00,87.3,63.1,29.85,South,171,1.6,3.4,44,0.00,,,0.00,WSDL version 420,2013-02-24 20:16:00,
2013-02-24 15:21:00,87.6,63.7,29.85,SW,218,1.6,3.4,45,0.00,,,0.00,WSDL version 420,2013-02-24 20:21:00,
2013-02-24 15:26:00,88.0,63.0,29.85,South,169,3.0,3.8,43,0.00,,,0.00,WSDL version 420,2013-02-24 20:26:00,
2013-02-24 15:31:00,88.2,62.9,29.85,South,188,3.1,4.7,43,0.00,,,0.00,WSDL version 420,2013-02-24 20:31:00,
2013-02-24 15:36:00,87.9,61.9,29.85,SW,216,2.7,4.7,42,0.00,,,0.00,WSDL version 420,2013-02-24 20:36:00,
2013-02-24 15:41:00,88.2,62.4,29.85,South,180,2.9,4.3,42,0.00,,,0.00,WSDL version 420,2013-02-24 20:41:00,
2013-02-24 15:46:00,87.9,61.4,29.85,South,180,2.9,4.3,41,0.00,,,0.00,WSDL version 420,2013-02-24 20:46:00,
2013-02-24 15:51:00,87.8,61.6,29.83,South,180,2.9,4.3,42,0.00,,,0.00,WSDL version 420,2013-02-24 20:51:00,
2013-02-24 15:56:00,88.1,61.8,29.83,South,180,1.6,4.3,42,0.00,,,0.00,WSDL version 420,2013-02-24 20:56:00,
2013-02-24 16:01:00,87.7,61.1,29.83,South,180,3.4,4.3,41,0.00,,,0.00,WSDL version 420,2013-02-24 21:01:00,
2013-02-24 16:06:00,88.0,61.4,29.83,South,180,3.4,3.4,41,0.00,,,0.00,WSDL version 420,2013-02-24 21:06:00,
2013-02-24 16:11:00,88.7,62.0,29.83,South,180,3.4,3.4,41,0.00,,,0.00,WSDL version 420,2013-02-24 21:11:00,
2013-02-24 16:16:00,89.0,62.2,29.83,North,0,0.0,1.6,41,0.00,,,0.00,WSDL version 420,2013-02-24 21:16:00,
2013-02-24 16:21:00,88.9,61.5,29.85,North,0,0.0,1.6,39,0.00,,,0.00,WSDL version 420,2013-02-24 21:21:00,
2013-02-24 16:26:00,88.9,61.1,29.85,North,-999,-999.0,-999.0,39,0.00,,,0.00,WSDL version 420,2013-02-24 21:26:00,
2013-02-24 16:31:00,88.7,60.4,29.85,North,-999,-999.0,-999.0,39,0.00,,,0.00,WSDL version 420,2013-02-24 21:31:00,
2013-02-24 16:36:00,88.0,59.6,29.85,North,-999,-999.0,-999.0,39,0.00,,,0.00,WSDL version 420,2013-02-24 21:36:00,
2013-02-24 16:41:00,87.2,59.6,29.85,North,-999,-999.0,-999.0,40,0.00,,,0.00,WSDL version 420,2013-02-24 21:41:00,
2013-02-24 16:46:00,86.6,58.9,29.85,North,-999,-999.0,-999.0,40,0.00,,,0.00,WSDL version 420,2013-02-24 21:46:00,
2013-02-24 16:51:00,86.5,59.3,29.85,North,-999,-999.0,-999.0,40,0.00,,,0.00,WSDL version 420,2013-02-24 21:51:00,
2013-02-24 16:56:00,86.3,59.1,29.85,North,-999,-999.0,-999.0,40,0.00,,,0.00,WSDL version 420,2013-02-24 21:56:00,
2013-02-24 17:01:00,86.0,59.0,29.85,North,-999,-999.0,-999.0,41,0.00,,,0.00,WSDL version 420,2013-02-24 22:01:00,
2013-02-24 17:06:00,85.7,59.3,29.85,North,-999,-999.0,-999.0,41,0.00,,,0.00,WSDL version 420,2013-02-24 22:06:00,
2013-02-24 17:11:00,85.3,59.4,29.85,North,-999,-999.0,-999.0,42,0.00,,,0.00,WSDL version 420,2013-02-24 22:11:00,
2013-02-24 17:16:00,85.0,59.4,29.85,North,-999,-999.0,-999.0,42,0.00,,,0.00,WSDL version 420,2013-02-24 22:16:00,
2013-02-24 17:21:00,84.7,59.3,29.85,North,-999,-999.0,-999.0,42,0.00,,,0.00,WSDL version 420,2013-02-24 22:21:00,
2013-02-24 17:26:00,83.9,58.8,29.85,North,-999,-999.0,-999.0,43,0.00,,,0.00,WSDL version 420,2013-02-24 22:26:00,
2013-02-24 17:31:00,83.2,59.1,29.85,North,-999,-999.0,-999.0,44,0.00,,,0.00,WSDL version 420,2013-02-24 22:31:00,
2013-02-24 17:36:00,83.0,59.5,29.85,North,-999,-999.0,-999.0,46,0.00,,,0.00,WSDL version 420,2013-02-24 22:36:00,
2013-02-24 17:41:00,82.9,60.9,29.85,North,-999,-999.0,-999.0,48,0.00,,,0.00,WSDL version 420,2013-02-24 22:41:00,
2013-02-24 17:46:00,82.5,61.8,29.85,North,-999,-999.0,-999.0,50,0.00,,,0.00,WSDL version 420,2013-02-24 22:46:00,
2013-02-24 17:51:00,82.2,62.8,29.85,North,-999,-999.0,-999.0,53,0.00,,,0.00,WSDL version 420,2013-02-24 22:51:00,
2013-02-24 17:56:00,81.8,63.3,29.85,North,-999,-999.0,-999.0,54,0.00,,,0.00,WSDL version 420,2013-02-24 22:56:00,
2013-02-24 18:01:00,81.3,63.2,29.85,North,-999,-999.0,-999.0,55,0.00,,,0.00,WSDL version 420,2013-02-24 23:01:00,
2013-02-24 18:06:00,80.9,63.2,29.85,North,-999,-999.0,-999.0,55,0.00,,,0.00,WSDL version 420,2013-02-24 23:06:00,
2013-02-24 18:11:00,80.5,63.4,29.85,SSE,158,1.1,1.6,56,0.00,,,0.00,WSDL version 420,2013-02-24 23:11:00,
2013-02-24 18:16:00,80.2,63.6,29.85,SSW,203,1.1,1.6,57,0.00,,,0.00,WSDL version 420,2013-02-24 23:16:00,
2013-02-24 18:21:00,79.8,63.2,29.85,SSW,203,1.1,1.6,57,0.00,,,0.00,WSDL version 420,2013-02-24 23:21:00,
2013-02-24 18:26:00,79.4,62.9,29.85,SSW,203,1.1,0.0,57,0.00,,,0.00,WSDL version 420,2013-02-24 23:26:00,
2013-02-24 18:31:00,79.2,63.1,29.85,SSW,203,1.1,0.0,58,0.00,,,0.00,WSDL version 420,2013-02-24 23:31:00,
2013-02-24 18:36:00,78.9,62.9,29.85,SSW,203,1.3,0.0,58,0.00,,,0.00,WSDL version 420,2013-02-24 23:36:00,
2013-02-24 18:41:00,78.7,62.8,29.85,SSW,203,1.3,0.0,59,0.00,,,0.00,WSDL version 420,2013-02-24 23:41:00,
2013-02-24 18:46:00,78.5,63.0,29.85,SSW,203,1.3,0.0,59,0.00,,,0.00,WSDL version 420,2013-02-24 23:46:00,
2013-02-24 18:51:00,78.2,62.7,29.85,North,0,0.0,0.0,59,0.00,,,0.00,WSDL version 420,2013-02-24 23:51:00,
2013-02-24 18:56:00,78.0,62.8,29.85,North,0,0.0,0.0,60,0.00,,,0.00,WSDL version 420,2013-02-24 23:56:00,
2013-02-24 19:01:00,77.9,62.9,29.85,North,-999,-999.0,-999.0,60,0.00,,,0.00,WSDL version 420,2013-02-25 00:01:00,
2013-02-24 19:06:00,77.7,62.7,29.85,North,-999,-999.0,-999.0,60,0.00,,,0.00,WSDL version 420,2013-02-25 00:06:00,
2013-02-24 19:11:00,77.5,62.6,29.85,North,-999,-999.0,-999.0,60,0.00,,,0.00,WSDL version 420,2013-02-25 00:11:00,
2013-02-24 19:16:00,77.5,63.0,29.85,North,-999,-999.0,-999.0,61,0.00,,,0.00,WSDL version 420,2013-02-25 00:16:00,
2013-02-24 19:21:00,77.4,62.9,29.88,North,-999,-999.0,-999.0,61,0.00,,,0.00,WSDL version 420,2013-02-25 00:21:00,
2013-02-24 19:26:00,77.3,62.8,29.88,SSW,203,0.0,0.0,61,0.00,,,0.00,WSDL version 420,2013-02-25 00:26:00,
2013-02-24 19:31:00,77.2,62.7,29.88,SSW,203,0.0,0.0,61,0.00,,,0.00,WSDL version 420,2013-02-25 00:31:00,
2013-02-24 19:36:00,77.0,62.5,29.85,SSW,203,0.0,0.0,61,0.00,,,0.00,WSDL version 420,2013-02-25 00:36:00,
2013-02-24 19:41:00,76.9,62.6,29.85,North,0,0.0,0.0,62,0.00,,,0.00,WSDL version 420,2013-02-25 00:41:00,
2013-02-24 19:46:00,76.8,62.8,29.85,North,0,0.0,0.0,62,0.00,,,0.00,WSDL version 420,2013-02-25 00:46:00,
2013-02-24 19:51:00,76.8,62.9,29.88,North,-999,-999.0,-999.0,63,0.00,,,0.00,WSDL version 420,2013-02-25 00:51:00,
2013-02-24 19:56:00,76.8,63.1,29.88,North,-999,-999.0,-999.0,62,0.00,,,0.00,WSDL version 420,2013-02-25 00:56:00,
2013-02-24 20:01:00,76.8,63.1,29.88,North,-999,-999.0,-999.0,63,0.00,,,0.00,WSDL version 420,2013-02-25 01:01:00,
2013-02-24 20:06:00,76.8,63.3,29.88,North,-999,-999.0,-999.0,63,0.00,,,0.00,WSDL version 420,2013-02-25 01:06:00,
2013-02-24 20:11:00,76.8,63.2,29.88,North,-999,-999.0,-999.0,63,0.00,,,0.00,WSDL version 420,2013-02-25 01:11:00,
2013-02-24 20:16:00,76.8,63.4,29.88,North,-999,-999.0,-999.0,64,0.00,,,0.00,WSDL version 420,2013-02-25 01:16:00,
2013-02-24 20:21:00,76.8,63.7,29.88,North,-999,-999.0,-999.0,64,0.00,,,0.00,WSDL version 420,2013-02-25 01:21:00,
2013-02-24 20:26:00,76.8,63.7,29.88,North,-999,-999.0,-999.0,64,0.00,,,0.00,WSDL version 420,2013-02-25 01:26:00,
2013-02-24 20:31:00,76.7,63.8,29.88,North,-999,-999.0,-999.0,65,0.00,,,0.00,WSDL version 420,2013-02-25 01:31:00,
2013-02-24 20:36:00,76.6,64.0,29.88,North,-999,-999.0,-999.0,65,0.00,,,0.00,WSDL version 420,2013-02-25 01:36:00,
2013-02-24 20:41:00,76.5,64.0,29.88,North,-999,-999.0,-999.0,66,0.00,,,0.00,WSDL version 420,2013-02-25 01:41:00,
2013-02-24 20:46:00,76.5,64.3,29.88,North,-999,-999.0,-999.0,66,0.00,,,0.00,WSDL version 420,2013-02-25 01:46:00,
2013-02-24 20:51:00,76.3,64.1,29.88,North,-999,-999.0,-999.0,66,0.00,,,0.00,WSDL version 420,2013-02-25 01:51:00,
2013-02-24 20:56:00,76.3,64.5,29.88,North,-999,-999.0,-999.0,67,0.00,,,0.00,WSDL version 420,2013-02-25 01:56:00,
2013-02-24 21:01:00,76.3,64.5,29.88,North,-999,-999.0,-999.0,67,0.00,,,0.00,WSDL version 420,2013-02-25 02:01:00,
2013-02-24 21:06:00,76.3,64.8,29.88,North,-999,-999.0,-999.0,68,0.00,,,0.00,WSDL version 420,2013-02-25 02:06:00,
2013-02-24 21:11:00,76.1,64.8,29.88,North,-999,-999.0,-999.0,68,0.00,,,0.00,WSDL version 420,2013-02-25 02:11:00,
2013-02-24 21:16:00,76.2,64.9,29.88,North,-999,-999.0,-999.0,68,0.00,,,0.00,WSDL version 420,2013-02-25 02:16:00,
2013-02-24 21:21:00,76.3,65.4,29.88,North,-999,-999.0,-999.0,69,0.00,,,0.00,WSDL version 420,2013-02-25 02:21:00,
2013-02-24 21:26:00,76.3,65.4,29.88,North,-999,-999.0,-999.0,69,0.00,,,0.00,WSDL version 420,2013-02-25 02:26:00,
2013-02-24 21:31:00,76.3,65.4,29.88,North,-999,-999.0,-999.0,69,0.00,,,0.00,WSDL version 420,2013-02-25 02:31:00,
2013-02-24 21:36:00,76.1,65.2,29.91,North,-999,-999.0,-999.0,69,0.00,,,0.00,WSDL version 420,2013-02-25 02:36:00,
2013-02-24 21:41:00,76.1,65.2,29.91,North,-999,-999.0,-999.0,69,0.00,,,0.00,WSDL version 420,2013-02-25 02:41:00,
2013-02-24 21:46:00,76.0,65.1,29.91,North,-999,-999.0,-999.0,69,0.00,,,0.00,WSDL version 420,2013-02-25 02:46:00,
2013-02-24 21:51:00,75.9,65.0,29.88,North,-999,-999.0,-999.0,69,0.00,,,0.00,WSDL version 420,2013-02-25 02:51:00,
2013-02-24 21:56:00,75.7,64.9,29.88,North,-999,-999.0,-999.0,69,0.00,,,0.00,WSDL version 420,2013-02-25 02:56:00,
2013-02-24 22:01:00,75.6,64.7,29.88,North,-999,-999.0,-999.0,69,0.00,,,0.00,WSDL version 420,2013-02-25 03:01:00,
2013-02-24 22:06:00,75.5,64.6,29.88,North,-999,-999.0,-999.0,69,0.00,,,0.00,WSDL version 420,2013-02-25 03:06:00,
2013-02-24 22:11:00,75.2,64.3,29.88,North,-999,-999.0,-999.0,69,0.00,,,0.00,WSDL version 420,2013-02-25 03:11:00,
2013-02-24 22:16:00,75.2,64.3,29.88,North,-999,-999.0,-999.0,69,0.00,,,0.00,WSDL version 420,2013-02-25 03:16:00,
2013-02-24 22:21:00,75.0,64.1,29.88,North,-999,-999.0,-999.0,69,0.00,,,0.00,WSDL version 420,2013-02-25 03:21:00,
2013-02-24 22:26:00,74.8,64.0,29.88,North,-999,-999.0,-999.0,69,0.00,,,0.00,WSDL version 420,2013-02-25 03:26:00,
2013-02-24 22:31:00,74.6,63.7,29.88,North,-999,-999.0,-999.0,69,0.00,,,0.00,WSDL version 420,2013-02-25 03:31:00,
2013-02-24 22:36:00,74.3,63.4,29.88,North,-999,-999.0,-999.0,68,0.00,,,0.00,WSDL version 420,2013-02-25 03:36:00,
2013-02-24 22:41:00,74.1,63.3,29.88,North,-999,-999.0,-999.0,69,0.00,,,0.00,WSDL version 420,2013-02-25 03:41:00,
2013-02-24 22:46:00,73.9,63.1,29.88,North,-999,-999.0,-999.0,69,0.00,,,0.00,WSDL version 420,2013-02-25 03:46:00,
2013-02-24 22:51:00,73.8,63.0,29.88,North,-999,-999.0,-999.0,69,0.00,,,0.00,WSDL version 420,2013-02-25 03:51:00,
2013-02-24 22:56:00,73.4,62.7,29.88,North,-999,-999.0,-999.0,69,0.00,,,0.00,WSDL version 420,2013-02-25 03:56:00,
2013-02-24 23:01:00,73.3,62.8,29.88,North,-999,-999.0,-999.0,70,0.00,,,0.00,WSDL version 420,2013-02-25 04:01:00,
2013-02-24 23:06:00,73.1,62.7,29.85,North,-999,-999.0,-999.0,70,0.00,,,0.00,WSDL version 420,2013-02-25 04:06:00,
2013-02-24 23:11:00,72.9,62.6,29.85,North,-999,-999.0,-999.0,70,0.00,,,0.00,WSDL version 420,2013-02-25 04:11:00,
2013-02-24 23:16:00,72.7,62.5,29.85,North,-999,-999.0,-999.0,70,0.00,,,0.00,WSDL version 420,2013-02-25 04:16:00,
2013-02-24 23:21:00,72.6,62.7,29.88,North,-999,-999.0,-999.0,71,0.00,,,0.00,WSDL version 420,2013-02-25 04:21:00,
2013-02-24 23:26:00,72.5,62.6,29.88,North,-999,-999.0,-999.0,71,0.00,,,0.00,WSDL version 420,2013-02-25 04:26:00,
2013-02-24 23:31:00,72.3,62.8,29.88,North,-999,-999.0,-999.0,72,0.00,,,0.00,WSDL version 420,2013-02-25 04:31:00,
2013-02-24 23:36:00,72.2,62.7,29.85,North,-999,-999.0,-999.0,72,0.00,,,0.00,WSDL version 420,2013-02-25 04:36:00,
2013-02-24 23:41:00,72.1,62.8,29.85,North,-999,-999.0,-999.0,73,0.00,,,0.00,WSDL version 420,2013-02-25 04:41:00,
2013-02-24 23:46:00,71.9,62.8,29.85,North,-999,-999.0,-999.0,73,0.00,,,0.00,WSDL version 420,2013-02-25 04:46:00,
2013-02-24 23:51:00,71.8,62.9,29.85,North,-999,-999.0,-999.0,74,0.00,,,0.00,WSDL version 420,2013-02-25 04:51:00,
2013-02-24 23:56:00,71.7,62.9,29.85,North,-999,-999.0,-999.0,74,0.00,,,0.00,WSDL version 420,2013-02-25 04:56:00,